Hourly Data Report for October 30, 2014

All times are specified in Local Standard Time (LST). Add 1 hour to adjust for Daylight Saving Time where and when it is observed.

KUGAARUK CLIMATE
NUNAVUT

68°32'15.060" N
89°47'47.020" W
15.80 m
2303094
71407
NBB

Download Data

Hourly Data (October 2014)
Hourly Data Report for October 30, 2014
Temp Definition
°C
Dew Point Temp Definition
°C
Rel Hum Definition
%
Wind Dir Definition
10's deg

Wind Spd Definition
km/h
Visibility Definition
km
Stn Press Definition
kPa
Hmdx Definition


Wind Chill Definition


Weather Definition


TIME
00:00 -14.8 -16.8 85 23 35   101.68   -27 LegendNANA
01:00 -14.5 -16.5 85 24 34   101.71   -26 LegendNANA
02:00 -14.2 -16.0 86 25 37   101.70   -26 LegendNANA
03:00 -14.5 -16.3 86 24 29   101.75   -25 LegendNANA
04:00 -13.7 -15.4 87 24 27   101.77   -24 LegendNANA
05:00 -13.4 -15.8 82 26 20   101.83   -22 LegendNANA
06:00 -13.5 -15.6 84 26 23   101.81   -23 LegendNANA
07:00 -13.7 -15.9 84 25 25   101.82   -24 LegendNANA
08:00 -15.3 -17.8 81 25 22   101.85   -25 LegendNANA
09:00 -15.9 -18.4 81 24 21   101.87   -26 LegendNANA
10:00 -14.9 -17.8 79 26 23   101.89   -25 LegendNANA
11:00 -15.1 -17.9 79 25 25   101.91   -25 LegendNANA
12:00 -15.2 -18.4 76 25 23   101.95   -25 LegendNANA
13:00 -16.6 -19.8 76 24 16   101.99   -25 LegendNANA
14:00 -17.6 -20.2 80 26 12   102.04   -25 LegendNANA
15:00 -18.3 -20.5 83 24 12   102.06   -26 LegendNANA
16:00 -18.7 -21.0 82 24 19   102.07   -29 LegendNANA
17:00 -19.2 -21.7 81 24 15   102.10   -28 LegendNANA
18:00 -20.6 -23.1 80 26 12   102.09   -29 LegendNANA
19:00 -20.7 -23.0 82 27 15   102.07   -30 LegendNANA
20:00 -20.7 -23.0 82 27 17   102.04   -31 LegendNANA
21:00 -20.8 -23.2 81 26 18   102.02   -31 LegendNANA
22:00 -21.9 -24.2 82 25 17   102.04   -32 LegendNANA
23:00 -22.0 -24.2 82 27 14   102.03   -31 LegendNANA

Notes on Data Quality.

Legend

  • E = Estimated
  • M = Missing
  • NA = Not Available
  • ‡ = Partner data that is not subject to review by the National Climate Archives
Date modified: